{"data":{"norad_id":57844,"epoch":"2026-05-25T02:37:08.666976Z","epoch_age_seconds":62801,"freshness":"FRESH","line1":"1 57844U 23141E   26145.10912809 -.00001713  00000+0 -45775-4 0  9992","line2":"2 57844  53.1611 288.7800 0001107  99.1961 260.9165 15.30177938152038","mean_motion":15.30177938,"eccentricity":0.0001107,"inclination_deg":53.1611,"raan_deg":288.78,"arg_perigee_deg":99.1961,"mean_anomaly_deg":260.9165,"bstar":-4.5775e-5,"rev_number":15203,"period_min":94.106702510829,"perigee_km":474.52226999975,"apogee_km":476.03961673241,"semimajor_km":6853.4179433661,"source":"CELESTRAK","updated_at":"2026-05-25T13:38:18.414162Z"}}